Time,TemperatureF,DewpointF,PressureIn,WindDirection,WindDirectionDegrees,WindSpeedMPH,WindSpeedGustMPH,Humidity,HourlyPrecipIn,Conditions,Clouds,dailyrainin,SolarRadiationWatts/m^2,SoftwareType,DateUTC
2013-01-11 00:03:00,38.1,29.1,30.56,NNE,15,0.0,3.0,70,0.00,,,0.00,0.0,meteohub,2013-01-11 05:03:00,
2013-01-11 00:04:00,38.5,29.5,30.55,NNE,15,1.0,3.0,70,0.00,,,0.00,0.0,meteohub,2013-01-11 05:04:00,
2013-01-11 00:09:00,38.7,29.7,30.55,NNE,15,0.0,3.0,70,0.00,,,0.00,0.0,meteohub,2013-01-11 05:09:00,
2013-01-11 00:15:00,38.7,29.7,30.55,NNE,15,0.0,3.0,70,0.00,,,0.00,0.0,meteohub,2013-01-11 05:15:00,
2013-01-11 00:20:00,38.8,29.8,30.55,NNE,15,0.0,3.0,70,0.00,,,0.00,0.0,meteohub,2013-01-11 05:20:00,
2013-01-11 00:25:00,39.0,29.7,30.54,NNE,15,0.0,3.0,69,0.00,,,0.00,0.0,meteohub,2013-01-11 05:25:00,
2013-01-11 00:30:00,39.2,29.8,30.55,NNE,20,2.0,2.0,69,0.00,,,0.00,0.0,meteohub,2013-01-11 05:30:00,
2013-01-11 00:35:00,39.4,30.0,30.53,NNE,21,3.0,3.0,69,0.00,,,0.00,0.0,meteohub,2013-01-11 05:35:00,
2013-01-11 00:40:00,39.4,30.0,30.55,NNE,21,0.0,5.0,69,0.00,,,0.00,0.0,meteohub,2013-01-11 05:40:00,
2013-01-11 00:45:00,39.4,30.0,30.54,NNE,21,0.0,5.0,69,0.00,,,0.00,0.0,meteohub,2013-01-11 05:45:00,
2013-01-11 00:50:00,39.6,30.2,30.54,NE,43,1.0,3.0,69,0.00,,,0.00,0.0,meteohub,2013-01-11 05:50:00,
2013-01-11 00:55:00,39.6,29.8,30.54,NE,44,2.0,3.0,68,0.00,,,0.00,0.0,meteohub,2013-01-11 05:55:00,
2013-01-11 01:01:00,39.7,29.7,30.53,NE,36,2.0,3.0,67,0.00,,,0.00,0.0,meteohub,2013-01-11 06:01:00,
2013-01-11 01:06:00,39.9,29.8,30.53,NE,35,3.0,5.0,67,0.00,,,0.00,0.0,meteohub,2013-01-11 06:06:00,
2013-01-11 01:11:00,40.1,30.0,30.53,NE,35,1.0,6.0,67,0.00,,,0.00,0.0,meteohub,2013-01-11 06:11:00,
2013-01-11 01:16:00,40.1,30.0,30.53,NE,35,2.0,6.0,67,0.00,,,0.00,0.0,meteohub,2013-01-11 06:16:00,
2013-01-11 01:21:00,40.1,29.7,30.53,NE,35,2.0,4.0,66,0.00,,,0.00,0.0,meteohub,2013-01-11 06:21:00,
2013-01-11 01:26:00,40.1,30.0,30.53,NE,35,0.0,5.0,67,0.00,,,0.00,0.0,meteohub,2013-01-11 06:26:00,
2013-01-11 01:31:00,40.1,30.0,30.53,NE,35,2.0,5.0,67,0.00,,,0.00,0.0,meteohub,2013-01-11 06:31:00,
2013-01-11 01:36:00,40.1,30.0,30.53,NE,40,2.0,5.0,67,0.00,,,0.00,0.0,meteohub,2013-01-11 06:36:00,
2013-01-11 01:41:00,40.3,30.2,30.53,NE,40,1.0,5.0,67,0.00,,,0.00,0.0,meteohub,2013-01-11 06:41:00,
2013-01-11 01:46:00,40.1,29.7,30.53,NE,40,1.0,5.0,66,0.00,,,0.00,0.0,meteohub,2013-01-11 06:46:00,
2013-01-11 01:51:00,39.9,29.8,30.53,NE,40,0.0,5.0,67,0.00,,,0.00,0.0,meteohub,2013-01-11 06:51:00,
2013-01-11 01:57:00,39.9,29.8,30.53,NNE,28,3.0,3.0,67,0.00,,,0.00,0.0,meteohub,2013-01-11 06:57:00,
2013-01-11 02:02:00,39.9,29.8,30.53,NNE,28,0.0,4.0,67,0.00,,,0.00,0.0,meteohub,2013-01-11 07:02:00,
2013-01-11 02:07:00,39.9,29.8,30.53,NNE,28,0.0,4.0,67,0.00,,,0.00,0.0,meteohub,2013-01-11 07:07:00,
2013-01-11 02:12:00,39.9,29.8,30.53,NNE,28,0.0,4.0,67,0.00,,,0.00,0.0,meteohub,2013-01-11 07:12:00,
2013-01-11 02:17:00,39.9,29.8,30.53,NNE,28,2.0,5.0,67,0.00,,,0.00,0.0,meteohub,2013-01-11 07:17:00,
2013-01-11 02:22:00,39.9,29.8,30.53,NNE,28,0.0,5.0,67,0.00,,,0.00,0.0,meteohub,2013-01-11 07:22:00,
2013-01-11 02:27:00,39.9,30.2,30.53,NE,37,2.0,4.0,68,0.00,,,0.00,0.0,meteohub,2013-01-11 07:27:00,
2013-01-11 02:32:00,39.7,30.0,30.52,NE,37,1.0,3.0,68,0.00,,,0.00,0.0,meteohub,2013-01-11 07:32:00,
2013-01-11 02:37:00,39.7,30.0,30.52,NNE,22,1.0,5.0,68,0.00,,,0.00,0.0,meteohub,2013-01-11 07:37:00,
2013-01-11 02:42:00,39.7,30.0,30.53,NNE,22,0.0,5.0,68,0.00,,,0.00,0.0,meteohub,2013-01-11 07:42:00,
2013-01-11 02:47:00,39.7,30.0,30.52,NNE,22,3.0,5.0,68,0.00,,,0.00,0.0,meteohub,2013-01-11 07:47:00,
2013-01-11 02:52:00,39.7,30.0,30.51,NNE,26,2.0,4.0,68,0.00,,,0.00,0.0,meteohub,2013-01-11 07:52:00,
2013-01-11 02:57:00,39.7,30.0,30.51,NE,35,0.0,4.0,68,0.00,,,0.00,0.0,meteohub,2013-01-11 07:57:00,
2013-01-11 03:02:00,39.7,30.0,30.51,NE,35,1.0,7.0,68,0.00,,,0.00,0.0,meteohub,2013-01-11 08:02:00,
2013-01-11 03:07:00,39.7,30.0,30.51,ENE,59,1.0,7.0,68,0.00,,,0.00,0.0,meteohub,2013-01-11 08:07:00,
2013-01-11 03:12:00,39.7,30.0,30.51,ENE,61,3.0,6.0,68,0.00,,,0.00,0.0,meteohub,2013-01-11 08:12:00,
2013-01-11 03:17:00,39.7,30.0,30.51,ENE,61,3.0,6.0,68,0.00,,,0.00,0.0,meteohub,2013-01-11 08:17:00,
2013-01-11 03:22:00,39.7,30.0,30.51,ENE,59,0.0,6.0,68,0.00,,,0.00,0.0,meteohub,2013-01-11 08:22:00,
2013-01-11 03:27:00,39.7,30.0,30.51,ENE,59,1.0,4.0,68,0.00,,,0.00,0.0,meteohub,2013-01-11 08:27:00,
2013-01-11 03:32:00,39.6,29.8,30.50,ENE,59,2.0,3.0,68,0.00,,,0.00,0.0,meteohub,2013-01-11 08:32:00,
2013-01-11 03:37:00,39.6,30.2,30.51,NE,56,0.0,4.0,69,0.00,,,0.00,0.0,meteohub,2013-01-11 08:37:00,
2013-01-11 03:42:00,39.4,30.0,30.51,North,355,0.0,4.0,69,0.00,,,0.00,0.0,meteohub,2013-01-11 08:42:00,
2013-01-11 03:47:00,39.4,30.4,30.50,ENE,64,2.0,5.0,70,0.00,,,0.00,0.0,meteohub,2013-01-11 08:47:00,
2013-01-11 03:52:00,39.2,30.2,30.49,ENE,61,2.0,5.0,70,0.00,,,0.00,0.0,meteohub,2013-01-11 08:52:00,
2013-01-11 03:57:00,39.0,30.4,30.49,ENE,59,1.0,3.0,71,0.00,,,0.00,0.0,meteohub,2013-01-11 08:57:00,
2013-01-11 04:02:00,38.8,30.6,30.48,ENE,57,1.0,4.0,72,0.00,,,0.00,0.0,meteohub,2013-01-11 09:02:00,
2013-01-11 04:07:00,38.8,30.6,30.48,ENE,74,1.0,5.0,72,0.00,,,0.00,0.0,meteohub,2013-01-11 09:07:00,
2013-01-11 04:12:00,38.8,30.9,30.47,NE,40,1.0,5.0,73,0.00,,,0.00,0.0,meteohub,2013-01-11 09:12:00,
2013-01-11 04:17:00,38.8,30.9,30.47,NE,53,2.0,5.0,73,0.00,,,0.00,0.0,meteohub,2013-01-11 09:17:00,
2013-01-11 04:22:00,39.0,31.5,30.47,ENE,71,2.0,5.0,74,0.00,,,0.00,0.0,meteohub,2013-01-11 09:22:00,
2013-01-11 04:27:00,39.2,31.6,30.47,ESE,119,0.0,7.0,74,0.00,,,0.00,0.0,meteohub,2013-01-11 09:27:00,
2013-01-11 04:32:00,39.4,31.8,30.47,ENE,68,0.0,7.0,74,0.00,,,0.00,0.0,meteohub,2013-01-11 09:32:00,
2013-01-11 04:37:00,39.4,31.8,30.47,East,94,2.0,7.0,74,0.00,,,0.00,0.0,meteohub,2013-01-11 09:37:00,
2013-01-11 04:42:00,39.6,32.0,30.48,ENE,78,0.0,4.0,74,0.00,,,0.00,0.0,meteohub,2013-01-11 09:42:00,
2013-01-11 04:47:00,39.6,32.0,30.48,ENE,76,0.0,4.0,74,0.00,,,0.00,0.0,meteohub,2013-01-11 09:47:00,
2013-01-11 04:52:00,39.6,32.0,30.48,ENE,76,0.0,4.0,74,0.00,,,0.00,0.0,meteohub,2013-01-11 09:52:00,
2013-01-11 04:57:00,39.6,32.4,30.48,ENE,76,0.0,4.0,75,0.00,,,0.00,0.0,meteohub,2013-01-11 09:57:00,
2013-01-11 05:02:00,39.6,32.4,30.48,ENE,76,0.0,3.0,75,0.00,,,0.00,0.0,meteohub,2013-01-11 10:02:00,
2013-01-11 05:07:00,39.6,32.4,30.47,ENE,76,0.0,2.0,75,0.00,,,0.00,0.0,meteohub,2013-01-11 10:07:00,
2013-01-11 05:12:00,39.6,32.5,30.48,ENE,76,0.0,3.0,76,0.00,,,0.00,0.0,meteohub,2013-01-11 10:12:00,
2013-01-11 05:17:00,39.6,32.5,30.48,ENE,76,0.0,3.0,76,0.00,,,0.00,0.0,meteohub,2013-01-11 10:17:00,
2013-01-11 05:22:00,39.7,32.7,30.48,ENE,76,1.0,3.0,76,0.00,,,0.00,0.0,meteohub,2013-01-11 10:22:00,
2013-01-11 05:27:00,39.6,32.5,30.48,East,92,0.0,3.0,76,0.00,,,0.00,0.0,meteohub,2013-01-11 10:27:00,
2013-01-11 05:32:00,39.6,32.5,30.48,East,92,0.0,5.0,76,0.00,,,0.00,0.0,meteohub,2013-01-11 10:32:00,
2013-01-11 05:37:00,39.6,32.9,30.49,East,92,0.0,5.0,77,0.00,,,0.00,0.0,meteohub,2013-01-11 10:37:00,
2013-01-11 05:42:00,39.6,32.9,30.49,East,92,0.0,2.0,77,0.00,,,0.00,0.0,meteohub,2013-01-11 10:42:00,
2013-01-11 05:47:00,39.6,32.9,30.49,East,92,0.0,2.0,77,0.00,,,0.00,0.0,meteohub,2013-01-11 10:47:00,
2013-01-11 05:52:00,39.4,32.7,30.48,East,92,0.0,1.0,77,0.00,,,0.00,0.0,meteohub,2013-01-11 10:52:00,
2013-01-11 05:57:00,39.4,32.7,30.49,East,92,0.0,1.0,77,0.00,,,0.00,0.0,meteohub,2013-01-11 10:57:00,
2013-01-11 06:02:00,39.2,32.5,30.49,East,92,0.0,0.0,77,0.00,,,0.00,0.0,meteohub,2013-01-11 11:02:00,
2013-01-11 06:07:00,39.0,32.7,30.49,East,92,0.0,0.0,78,0.00,,,0.00,0.0,meteohub,2013-01-11 11:07:00,
2013-01-11 06:12:00,38.8,32.5,30.49,East,92,0.0,0.0,78,0.00,,,0.00,0.0,meteohub,2013-01-11 11:12:00,
2013-01-11 06:17:00,38.8,32.5,30.49,East,92,0.0,1.0,78,0.00,,,0.00,0.0,meteohub,2013-01-11 11:17:00,
2013-01-11 06:22:00,38.8,32.5,30.50,East,92,0.0,1.0,78,0.00,,,0.00,0.0,meteohub,2013-01-11 11:22:00,
2013-01-11 06:27:00,38.7,32.7,30.49,East,92,0.0,1.0,79,0.00,,,0.00,0.0,meteohub,2013-01-11 11:27:00,
2013-01-11 06:32:00,38.5,32.5,30.49,East,92,0.0,1.0,79,0.00,,,0.00,0.0,meteohub,2013-01-11 11:32:00,
2013-01-11 06:37:00,38.3,32.4,30.49,East,92,0.0,1.0,79,0.00,,,0.00,0.0,meteohub,2013-01-11 11:37:00,
2013-01-11 06:42:00,38.1,32.5,30.49,East,92,0.0,0.0,80,0.00,,,0.00,0.0,meteohub,2013-01-11 11:42:00,
2013-01-11 06:47:00,38.5,32.9,30.49,East,92,0.0,0.0,80,0.00,,,0.00,0.0,meteohub,2013-01-11 11:47:00,
2013-01-11 06:52:00,38.7,33.1,30.49,East,92,0.0,0.0,80,0.00,,,0.00,0.0,meteohub,2013-01-11 11:52:00,
2013-01-11 06:57:00,38.7,33.1,30.49,East,92,0.0,0.0,80,0.00,,,0.00,0.0,meteohub,2013-01-11 11:57:00,
2013-01-11 07:02:00,38.7,33.1,30.48,East,92,0.0,0.0,80,0.00,,,0.00,0.0,meteohub,2013-01-11 12:02:00,
2013-01-11 07:07:00,38.8,33.3,30.49,East,92,0.0,0.0,80,0.00,,,0.00,0.0,meteohub,2013-01-11 12:07:00,
2013-01-11 07:12:00,38.8,33.3,30.48,East,92,0.0,2.0,80,0.00,,,0.00,0.0,meteohub,2013-01-11 12:12:00,
2013-01-11 07:17:00,39.0,33.1,30.48,East,92,0.0,2.0,79,0.00,,,0.00,0.0,meteohub,2013-01-11 12:17:00,
2013-01-11 07:22:00,39.0,33.1,30.49,East,92,0.0,2.0,79,0.00,,,0.00,0.0,meteohub,2013-01-11 12:22:00,
2013-01-11 07:27:00,39.0,33.1,30.49,East,92,0.0,0.0,79,0.00,,,0.00,5.0,meteohub,2013-01-11 12:27:00,
2013-01-11 07:32:00,39.0,33.1,30.50,East,92,0.0,1.0,79,0.00,,,0.00,11.0,meteohub,2013-01-11 12:32:00,
2013-01-11 07:37:00,38.8,32.9,30.50,East,92,0.0,1.0,79,0.00,,,0.00,18.0,meteohub,2013-01-11 12:37:00,
2013-01-11 07:42:00,38.8,32.9,30.49,East,92,0.0,1.0,79,0.00,,,0.00,21.0,meteohub,2013-01-11 12:42:00,
2013-01-11 07:47:00,38.8,32.9,30.48,East,92,0.0,0.0,79,0.00,,,0.00,21.0,meteohub,2013-01-11 12:47:00,
2013-01-11 07:52:00,38.7,32.7,30.48,East,92,0.0,0.0,79,0.00,,,0.00,23.0,meteohub,2013-01-11 12:52:00,
2013-01-11 07:57:00,38.8,33.3,30.48,East,92,1.0,1.0,80,0.00,,,0.00,26.0,meteohub,2013-01-11 12:57:00,
2013-01-11 08:02:00,39.4,33.8,30.49,East,95,0.0,3.0,80,0.00,,,0.00,30.0,meteohub,2013-01-11 13:02:00,
2013-01-11 08:07:00,39.9,34.3,30.49,ESE,123,1.0,3.0,80,0.00,,,0.00,37.0,meteohub,2013-01-11 13:07:00,
2013-01-11 08:12:00,40.6,34.7,30.49,ESE,121,4.0,5.0,79,0.00,,,0.00,42.0,meteohub,2013-01-11 13:12:00,
2013-01-11 08:17:00,41.2,34.9,30.48,ENE,61,1.0,5.0,78,0.00,,,0.00,46.0,meteohub,2013-01-11 13:17:00,
2013-01-11 08:22:00,41.5,34.9,30.47,SE,137,3.0,6.0,77,0.00,,,0.00,58.0,meteohub,2013-01-11 13:22:00,
2013-01-11 08:27:00,41.7,34.7,30.47,ESE,117,8.0,8.0,76,0.00,,,0.00,62.0,meteohub,2013-01-11 13:27:00,
2013-01-11 08:32:00,42.1,34.7,30.47,ESE,119,3.0,8.0,75,0.00,,,0.00,62.0,meteohub,2013-01-11 13:32:00,
2013-01-11 08:37:00,42.4,35.1,30.46,ESE,119,4.0,8.0,75,0.00,,,0.00,58.0,meteohub,2013-01-11 13:37:00,
2013-01-11 08:42:00,42.4,34.7,30.47,ESE,111,4.0,8.0,74,0.00,,,0.00,58.0,meteohub,2013-01-11 13:42:00,
2013-01-11 08:47:00,42.6,34.9,30.47,ESE,107,1.0,8.0,74,0.00,,,0.00,62.0,meteohub,2013-01-11 13:47:00,
2013-01-11 08:52:00,42.8,35.1,30.47,ESE,108,5.0,7.0,74,0.00,,,0.00,58.0,meteohub,2013-01-11 13:52:00,
2013-01-11 08:57:00,43.0,35.2,30.46,ESE,110,0.0,7.0,74,0.00,,,0.00,58.0,meteohub,2013-01-11 13:57:00,
2013-01-11 09:02:00,43.0,35.6,30.48,ESE,107,5.0,7.0,75,0.00,,,0.00,60.0,meteohub,2013-01-11 14:02:00,
2013-01-11 09:07:00,43.2,35.8,30.48,ESE,112,2.0,7.0,75,0.00,,,0.00,76.0,meteohub,2013-01-11 14:07:00,
2013-01-11 09:12:00,43.2,35.8,30.48,East,98,0.0,7.0,75,0.00,,,0.00,84.0,meteohub,2013-01-11 14:12:00,
2013-01-11 09:17:00,43.3,36.0,30.48,ESE,107,2.0,7.0,75,0.00,,,0.00,97.0,meteohub,2013-01-11 14:17:00,
2013-01-11 09:22:00,43.5,36.5,30.48,ESE,116,1.0,5.0,76,0.00,,,0.00,104.0,meteohub,2013-01-11 14:22:00,
2013-01-11 09:27:00,43.7,36.7,30.48,SE,136,0.0,5.0,76,0.00,,,0.00,90.0,meteohub,2013-01-11 14:27:00,
2013-01-11 09:32:00,43.9,36.9,30.47,ESE,107,1.0,7.0,76,0.00,,,0.00,81.0,meteohub,2013-01-11 14:32:00,
2013-01-11 09:37:00,44.1,37.0,30.47,East,82,5.0,7.0,76,0.00,,,0.00,67.0,meteohub,2013-01-11 14:37:00,
2013-01-11 09:42:00,44.1,36.7,30.47,ESE,114,4.0,7.0,75,0.00,,,0.00,63.0,meteohub,2013-01-11 14:42:00,
2013-01-11 09:47:00,44.1,36.7,30.46,ESE,121,4.0,7.0,75,0.00,,,0.00,65.0,meteohub,2013-01-11 14:47:00,
2013-01-11 09:52:00,44.1,36.7,30.46,ESE,122,7.0,9.0,75,0.00,,,0.00,77.0,meteohub,2013-01-11 14:52:00,
2013-01-11 09:57:00,44.1,36.7,30.46,ESE,118,2.0,9.0,75,0.00,,,0.00,91.0,meteohub,2013-01-11 14:57:00,
2013-01-11 10:02:00,44.2,37.2,30.46,East,83,3.0,9.0,76,0.00,,,0.00,86.0,meteohub,2013-01-11 15:02:00,
2013-01-11 10:07:00,44.2,37.2,30.46,East,96,3.0,7.0,76,0.00,,,0.00,72.0,meteohub,2013-01-11 15:07:00,
2013-01-11 10:12:00,44.4,37.4,30.47,ESE,105,2.0,7.0,76,0.00,,,0.00,69.0,meteohub,2013-01-11 15:12:00,
2013-01-11 10:17:00,44.4,37.4,30.47,ESE,107,2.0,7.0,76,0.00,,,0.00,83.0,meteohub,2013-01-11 15:17:00,
2013-01-11 10:22:00,44.4,37.4,30.46,East,80,5.0,6.0,76,0.00,,,0.00,81.0,meteohub,2013-01-11 15:22:00,
2013-01-11 10:27:00,44.6,37.6,30.45,ESE,113,2.0,6.0,76,0.00,,,0.00,60.0,meteohub,2013-01-11 15:27:00,
2013-01-11 10:32:00,44.6,37.6,30.45,East,88,2.0,6.0,76,0.00,,,0.00,58.0,meteohub,2013-01-11 15:32:00,
2013-01-11 10:37:00,44.6,37.6,30.45,ESE,114,0.0,7.0,76,0.00,,,0.00,77.0,meteohub,2013-01-11 15:37:00,
2013-01-11 10:42:00,44.6,37.6,30.45,SE,131,3.0,7.0,76,0.00,,,0.00,128.0,meteohub,2013-01-11 15:42:00,
2013-01-11 10:47:00,44.8,37.8,30.44,ENE,67,3.0,7.0,76,0.00,,,0.00,148.0,meteohub,2013-01-11 15:47:00,
2013-01-11 10:52:00,45.0,37.9,30.43,ESE,123,3.0,7.0,76,0.00,,,0.00,153.0,meteohub,2013-01-11 15:52:00,
2013-01-11 10:57:00,45.3,38.1,30.43,SE,130,6.0,7.0,76,0.00,,,0.00,192.0,meteohub,2013-01-11 15:57:00,
2013-01-11 11:02:00,45.7,38.5,30.43,ESE,116,3.0,7.0,76,0.00,,,0.00,258.0,meteohub,2013-01-11 16:02:00,
2013-01-11 11:07:00,46.0,38.5,30.43,ESE,119,2.0,9.0,75,0.00,,,0.00,230.0,meteohub,2013-01-11 16:07:00,
2013-01-11 11:12:00,46.6,39.0,30.40,ESE,106,3.0,9.0,75,0.00,,,0.00,141.0,meteohub,2013-01-11 16:12:00,
2013-01-11 11:17:00,46.8,39.2,30.41,ESE,119,3.0,9.0,75,0.00,,,0.00,128.0,meteohub,2013-01-11 16:17:00,
2013-01-11 11:22:00,46.8,39.2,30.39,ENE,69,4.0,8.0,75,0.00,,,0.00,162.0,meteohub,2013-01-11 16:22:00,
2013-01-11 11:27:00,46.9,39.7,30.39,ESE,117,3.0,9.0,76,0.00,,,0.00,153.0,meteohub,2013-01-11 16:27:00,
2013-01-11 11:32:00,46.9,39.7,30.39,ESE,109,2.0,9.0,76,0.00,,,0.00,141.0,meteohub,2013-01-11 16:32:00,
2013-01-11 11:37:00,46.9,39.7,30.40,ESE,114,1.0,11.0,76,0.00,,,0.00,149.0,meteohub,2013-01-11 16:37:00,
2013-01-11 11:42:00,46.9,39.7,30.39,SE,126,3.0,11.0,76,0.00,,,0.00,151.0,meteohub,2013-01-11 16:42:00,
2013-01-11 11:47:00,47.1,39.9,30.39,ESE,108,1.0,11.0,76,0.00,,,0.00,120.0,meteohub,2013-01-11 16:47:00,
2013-01-11 11:52:00,47.1,39.9,30.38,SE,131,4.0,8.0,76,0.00,,,0.00,142.0,meteohub,2013-01-11 16:52:00,
2013-01-11 11:57:00,47.3,40.5,30.37,SE,139,3.0,8.0,77,0.00,,,0.00,197.0,meteohub,2013-01-11 16:57:00,
2013-01-11 12:02:00,47.7,40.5,30.37,ESE,118,4.0,6.0,76,0.00,,,0.00,190.0,meteohub,2013-01-11 17:02:00,
2013-01-11 12:07:00,47.8,40.3,30.37,East,90,3.0,7.0,75,0.00,,,0.00,163.0,meteohub,2013-01-11 17:07:00,
2013-01-11 12:12:00,47.8,40.6,30.37,SE,132,3.0,7.0,76,0.00,,,0.00,171.0,meteohub,2013-01-11 17:12:00,
2013-01-11 12:17:00,48.0,40.5,30.36,SSE,153,3.0,7.0,75,0.00,,,0.00,160.0,meteohub,2013-01-11 17:17:00,
2013-01-11 12:22:00,48.0,40.5,30.36,SSW,205,2.0,7.0,75,0.00,,,0.00,139.0,meteohub,2013-01-11 17:22:00,
2013-01-11 12:27:00,48.0,40.5,30.36,East,90,2.0,7.0,75,0.00,,,0.00,139.0,meteohub,2013-01-11 17:27:00,
2013-01-11 12:32:00,48.2,40.6,30.36,ESE,123,1.0,7.0,75,0.00,,,0.00,149.0,meteohub,2013-01-11 17:32:00,
2013-01-11 12:37:00,48.4,40.8,30.35,ESE,121,2.0,7.0,75,0.00,,,0.00,178.0,meteohub,2013-01-11 17:37:00,
2013-01-11 12:42:00,48.6,41.0,30.35,ESE,123,1.0,7.0,75,0.00,,,0.00,105.0,meteohub,2013-01-11 17:42:00,
2013-01-11 12:47:00,48.4,40.8,30.35,ESE,119,3.0,7.0,75,0.00,,,0.00,79.0,meteohub,2013-01-11 17:47:00,
2013-01-11 12:52:00,48.0,40.5,30.35,SE,129,3.0,8.0,75,0.00,,,0.00,151.0,meteohub,2013-01-11 17:52:00,
2013-01-11 12:57:00,48.0,40.8,30.35,ESE,118,3.0,8.0,76,0.00,,,0.00,160.0,meteohub,2013-01-11 17:57:00,
2013-01-11 13:02:00,48.2,41.0,30.35,ESE,113,3.0,8.0,76,0.00,,,0.00,81.0,meteohub,2013-01-11 18:02:00,
2013-01-11 13:07:00,48.2,41.0,30.35,SE,130,1.0,7.0,76,0.00,,,0.00,49.0,meteohub,2013-01-11 18:07:00,
2013-01-11 13:12:00,48.2,41.0,30.35,SE,136,3.0,7.0,76,0.00,,,0.00,67.0,meteohub,2013-01-11 18:12:00,
2013-01-11 13:17:00,48.0,40.8,30.34,SE,133,3.0,7.0,76,0.00,,,0.00,127.0,meteohub,2013-01-11 18:17:00,
2013-01-11 13:22:00,48.4,41.9,30.34,ESE,117,0.0,7.0,78,0.00,,,0.00,223.0,meteohub,2013-01-11 18:22:00,
2013-01-11 13:27:00,48.6,42.6,30.34,SE,130,0.0,7.0,80,0.00,,,0.00,171.0,meteohub,2013-01-11 18:27:00,
2013-01-11 13:32:00,48.6,42.3,30.34,ESE,105,4.0,5.0,79,0.00,,,0.00,163.0,meteohub,2013-01-11 18:32:00,
2013-01-11 13:37:00,48.4,41.9,30.33,ESE,107,2.0,7.0,78,0.00,,,0.00,223.0,meteohub,2013-01-11 18:37:00,
2013-01-11 13:42:00,48.7,42.3,30.33,ESE,113,3.0,8.0,78,0.00,,,0.00,225.0,meteohub,2013-01-11 18:42:00,
2013-01-11 13:47:00,48.9,42.1,30.33,SSE,150,2.0,8.0,77,0.00,,,0.00,146.0,meteohub,2013-01-11 18:47:00,
2013-01-11 13:52:00,49.3,42.4,30.34,SE,136,2.0,7.0,77,0.00,,,0.00,139.0,meteohub,2013-01-11 18:52:00,
2013-01-11 13:57:00,49.3,42.4,30.34,SE,132,4.0,7.0,77,0.00,,,0.00,120.0,meteohub,2013-01-11 18:57:00,
2013-01-11 14:02:00,48.9,42.1,30.34,SE,144,3.0,6.0,77,0.00,,,0.00,90.0,meteohub,2013-01-11 19:02:00,
2013-01-11 14:07:00,48.9,42.4,30.34,ESE,120,2.0,6.0,78,0.00,,,0.00,63.0,meteohub,2013-01-11 19:07:00,
2013-01-11 14:12:00,48.7,42.3,30.33,ESE,111,2.0,6.0,78,0.00,,,0.00,60.0,meteohub,2013-01-11 19:12:00,
2013-01-11 14:17:00,48.6,42.3,30.33,ESE,115,3.0,5.0,79,0.00,,,0.00,54.0,meteohub,2013-01-11 19:17:00,
2013-01-11 14:22:00,48.4,42.3,30.32,ESE,112,3.0,5.0,79,0.00,,,0.00,58.0,meteohub,2013-01-11 19:22:00,
2013-01-11 14:27:00,48.4,43.5,30.32,ESE,105,3.0,5.0,83,0.00,,,0.00,53.0,meteohub,2013-01-11 19:27:00,
2013-01-11 14:32:00,48.0,43.3,30.32,SE,128,1.0,5.0,84,0.00,,,0.00,53.0,meteohub,2013-01-11 19:32:00,
2013-01-11 14:37:00,47.7,43.3,30.31,SE,129,3.0,5.0,85,0.00,,,0.00,60.0,meteohub,2013-01-11 19:37:00,
2013-01-11 14:42:00,47.5,43.5,30.32,ESE,117,1.0,5.0,86,0.00,,,0.00,79.0,meteohub,2013-01-11 19:42:00,
2013-01-11 14:47:00,47.5,43.9,30.32,ESE,117,0.0,5.0,87,0.00,,,0.00,39.0,meteohub,2013-01-11 19:47:00,
2013-01-11 14:52:00,47.3,43.9,30.31,ESE,114,3.0,4.0,88,0.00,,,0.00,47.0,meteohub,2013-01-11 19:52:00,
2013-01-11 14:57:00,46.9,43.5,30.30,East,96,5.0,5.0,88,0.00,,,0.00,21.0,meteohub,2013-01-11 19:57:00,
2013-01-11 15:02:00,46.8,43.3,30.30,SE,136,1.0,5.0,88,0.00,,,0.00,23.0,meteohub,2013-01-11 20:02:00,
2013-01-11 15:07:00,46.6,43.2,30.29,ESE,113,3.0,7.0,88,0.00,,,0.00,23.0,meteohub,2013-01-11 20:07:00,
2013-01-11 15:12:00,46.4,43.3,30.29,ESE,111,3.0,7.0,89,0.00,,,0.00,42.0,meteohub,2013-01-11 20:12:00,
2013-01-11 15:17:00,46.2,43.5,30.29,East,89,2.0,6.0,90,0.00,,,0.00,32.0,meteohub,2013-01-11 20:17:00,
2013-01-11 15:22:00,46.2,43.5,30.29,ENE,73,1.0,5.0,90,0.01,,,0.01,21.0,meteohub,2013-01-11 20:22:00,
2013-01-11 15:27:00,46.2,43.5,30.29,ESE,106,2.0,5.0,90,0.01,,,0.01,25.0,meteohub,2013-01-11 20:27:00,
2013-01-11 15:32:00,46.2,43.7,30.29,ESE,122,2.0,5.0,91,0.01,,,0.01,19.0,meteohub,2013-01-11 20:32:00,
2013-01-11 15:37:00,46.0,43.5,30.29,SE,126,0.0,4.0,91,0.01,,,0.01,14.0,meteohub,2013-01-11 20:37:00,
2013-01-11 15:42:00,46.2,43.7,30.29,SE,126,1.0,4.0,91,0.01,,,0.01,14.0,meteohub,2013-01-11 20:42:00,
2013-01-11 15:47:00,46.2,43.7,30.29,SE,144,2.0,4.0,91,0.01,,,0.01,14.0,meteohub,2013-01-11 20:47:00,
2013-01-11 15:52:00,46.4,43.9,30.28,SE,144,0.0,4.0,91,0.01,,,0.01,14.0,meteohub,2013-01-11 20:52:00,
2013-01-11 15:57:00,46.4,43.9,30.27,ESE,118,3.0,4.0,91,0.01,,,0.01,16.0,meteohub,2013-01-11 20:57:00,
2013-01-11 16:02:00,46.2,44.1,30.28,ESE,118,0.0,4.0,92,0.01,,,0.01,14.0,meteohub,2013-01-11 21:02:00,
2013-01-11 16:07:00,46.2,44.1,30.28,ESE,118,2.0,4.0,92,0.01,,,0.01,11.0,meteohub,2013-01-11 21:07:00,
2013-01-11 16:12:00,46.2,44.1,30.27,ESE,118,0.0,4.0,92,0.01,,,0.01,9.0,meteohub,2013-01-11 21:12:00,
2013-01-11 16:17:00,46.2,44.1,30.27,ESE,118,0.0,2.0,92,0.01,,,0.01,7.0,meteohub,2013-01-11 21:17:00,
2013-01-11 16:22:00,46.4,44.2,30.27,ESE,118,1.0,2.0,92,0.00,,,0.01,7.0,meteohub,2013-01-11 21:22:00,
2013-01-11 16:27:00,46.2,44.2,30.27,ESE,118,0.0,2.0,93,0.00,,,0.01,0.0,meteohub,2013-01-11 21:27:00,
2013-01-11 16:32:00,46.2,44.2,30.27,ESE,118,0.0,2.0,93,0.01,,,0.02,0.0,meteohub,2013-01-11 21:32:00,
2013-01-11 16:37:00,46.2,44.2,30.27,ESE,118,0.0,2.0,93,0.01,,,0.02,0.0,meteohub,2013-01-11 21:37:00,
2013-01-11 16:42:00,46.4,44.4,30.27,SE,131,1.0,2.0,93,0.01,,,0.02,0.0,meteohub,2013-01-11 21:42:00,
2013-01-11 16:47:00,46.6,44.6,30.27,SSE,162,0.0,3.0,93,0.01,,,0.02,0.0,meteohub,2013-01-11 21:47:00,
2013-01-11 16:52:00,46.6,44.6,30.27,SSE,163,1.0,4.0,93,0.01,,,0.02,0.0,meteohub,2013-01-11 21:52:00,
2013-01-11 16:57:00,46.8,44.8,30.26,SSE,155,0.0,4.0,93,0.01,,,0.02,0.0,meteohub,2013-01-11 21:57:00,
2013-01-11 17:02:00,46.8,44.8,30.26,SSE,155,0.0,5.0,93,0.01,,,0.02,0.0,meteohub,2013-01-11 22:02:00,
2013-01-11 17:08:00,46.8,44.8,30.27,SSE,155,1.0,5.0,93,0.01,,,0.02,0.0,meteohub,2013-01-11 22:08:00,
2013-01-11 17:13:00,46.8,44.8,30.26,SSE,155,1.0,3.0,93,0.01,,,0.02,0.0,meteohub,2013-01-11 22:13:00,
2013-01-11 17:18:00,46.8,44.8,30.26,SSE,162,3.0,3.0,93,0.02,,,0.03,0.0,meteohub,2013-01-11 22:18:00,
2013-01-11 17:23:00,46.8,45.1,30.25,SSE,162,2.0,4.0,94,0.03,,,0.04,0.0,meteohub,2013-01-11 22:23:00,
2013-01-11 17:28:00,46.8,45.1,30.25,SE,136,2.0,4.0,94,0.05,,,0.06,0.0,meteohub,2013-01-11 22:28:00,
2013-01-11 17:33:00,46.8,45.1,30.25,SSE,157,1.0,5.0,94,0.04,,,0.06,0.0,meteohub,2013-01-11 22:33:00,
2013-01-11 17:38:00,46.6,45.0,30.25,SSE,154,2.0,6.0,94,0.04,,,0.06,0.0,meteohub,2013-01-11 22:38:00,
2013-01-11 17:43:00,46.6,45.0,30.23,SE,134,1.0,6.0,94,0.06,,,0.08,0.0,meteohub,2013-01-11 22:43:00,
2013-01-11 17:48:00,46.4,44.8,30.23,SE,132,0.0,4.0,94,0.07,,,0.09,0.0,meteohub,2013-01-11 22:48:00,
2013-01-11 17:53:00,46.2,44.6,30.23,SSE,147,3.0,4.0,94,0.08,,,0.10,0.0,meteohub,2013-01-11 22:53:00,
2013-01-11 17:59:00,46.2,44.6,30.23,SE,145,2.0,4.0,94,0.08,,,0.10,0.0,meteohub,2013-01-11 22:59:00,
2013-01-11 18:04:00,46.2,44.8,30.23,SE,132,3.0,4.0,95,0.08,,,0.10,0.0,meteohub,2013-01-11 23:04:00,
2013-01-11 18:09:00,46.0,44.6,30.22,SE,134,1.0,5.0,95,0.10,,,0.01,0.0,meteohub,2013-01-11 23:09:00,
2013-01-11 18:14:00,46.0,44.6,30.22,ESE,116,5.0,5.0,95,0.09,,,0.01,0.0,meteohub,2013-01-11 23:14:00,
2013-01-11 18:19:00,46.0,44.6,30.22,SE,126,0.0,5.0,95,0.09,,,0.02,0.0,meteohub,2013-01-11 23:19:00,
2013-01-11 18:24:00,46.0,44.6,30.22,SE,126,1.0,5.0,95,0.09,,,0.03,0.0,meteohub,2013-01-11 23:24:00,
2013-01-11 18:29:00,46.0,44.6,30.21,SE,126,3.0,5.0,95,0.09,,,0.04,0.0,meteohub,2013-01-11 23:29:00,
2013-01-11 18:34:00,46.0,44.6,30.20,SE,135,3.0,4.0,95,0.11,,,0.06,0.0,meteohub,2013-01-11 23:34:00,
2013-01-11 18:39:00,46.0,44.6,30.19,SE,132,3.0,6.0,95,0.12,,,0.08,0.0,meteohub,2013-01-11 23:39:00,
2013-01-11 18:44:00,46.0,44.6,30.19,SE,124,3.0,6.0,95,0.12,,,0.09,0.0,meteohub,2013-01-11 23:44:00,
2013-01-11 18:50:00,46.0,44.6,30.19,SE,129,3.0,7.0,95,0.12,,,0.10,0.0,meteohub,2013-01-11 23:50:00,
2013-01-11 18:55:00,45.9,44.4,30.19,SE,124,2.0,9.0,95,0.12,,,0.11,0.0,meteohub,2013-01-11 23:55:00,
2013-01-11 19:00:00,45.9,44.8,30.18,SE,133,2.0,9.0,96,0.13,,,0.13,0.0,meteohub,2013-01-12 00:00:00,
2013-01-11 19:05:00,45.9,44.8,30.17,SE,136,4.0,9.0,96,0.13,,,0.13,0.0,meteohub,2013-01-12 00:05:00,
2013-01-11 19:10:00,45.9,44.4,30.17,SE,135,9.0,10.0,95,0.13,,,0.15,0.0,meteohub,2013-01-12 00:10:00,
2013-01-11 19:15:00,45.9,44.4,30.16,SE,126,4.0,10.0,95,0.13,,,0.16,0.0,meteohub,2013-01-12 00:15:00,
2013-01-11 19:20:00,45.9,44.8,30.16,SSE,151,4.0,10.0,96,0.12,,,0.16,0.0,meteohub,2013-01-12 00:20:00,
2013-01-11 19:25:00,46.0,45.0,30.16,SE,141,3.0,10.0,96,0.11,,,0.16,0.0,meteohub,2013-01-12 00:25:00,
2013-01-11 19:30:00,46.2,45.1,30.16,SSW,194,7.0,10.0,96,0.10,,,0.17,0.0,meteohub,2013-01-12 00:30:00,
2013-01-11 19:36:00,46.6,45.5,30.16,SSE,158,4.0,10.0,96,0.09,,,0.18,0.0,meteohub,2013-01-12 00:36:00,
2013-01-11 19:41:00,46.8,45.7,30.16,SSE,150,1.0,10.0,96,0.09,,,0.19,0.0,meteohub,2013-01-12 00:41:00,
2013-01-11 19:46:00,46.9,45.9,30.17,SE,135,6.0,10.0,96,0.11,,,0.22,0.0,meteohub,2013-01-12 00:46:00,
2013-01-11 19:51:00,46.9,45.9,30.17,ESE,113,0.0,10.0,96,0.11,,,0.23,0.0,meteohub,2013-01-12 00:51:00,
2013-01-11 19:56:00,46.9,45.9,30.17,SE,133,3.0,10.0,96,0.12,,,0.24,0.0,meteohub,2013-01-12 00:56:00,
2013-01-11 20:01:00,46.8,45.7,30.17,South,191,4.0,9.0,96,0.12,,,0.25,0.0,meteohub,2013-01-12 01:01:00,
2013-01-11 20:06:00,46.8,45.7,30.18,SE,140,0.0,6.0,96,0.11,,,0.25,0.0,meteohub,2013-01-12 01:06:00,
2013-01-11 20:11:00,46.9,45.9,30.20,NW,323,4.0,6.0,96,0.11,,,0.26,0.0,meteohub,2013-01-12 01:11:00,
2013-01-11 20:16:00,46.9,45.9,30.19,NW,325,0.0,5.0,96,0.10,,,0.26,0.0,meteohub,2013-01-12 01:16:00,
2013-01-11 20:22:00,46.9,45.5,30.19,NW,325,0.0,5.0,95,0.13,,,0.29,0.0,meteohub,2013-01-12 01:22:00,
2013-01-11 20:27:00,46.9,45.9,30.20,NW,325,3.0,5.0,96,0.14,,,0.31,0.0,meteohub,2013-01-12 01:27:00,
2013-01-11 20:32:00,46.9,45.5,30.19,NW,325,0.0,3.0,95,0.16,,,0.33,0.0,meteohub,2013-01-12 01:32:00,
2013-01-11 20:37:00,46.9,45.9,30.19,NW,325,0.0,3.0,96,0.16,,,0.34,0.0,meteohub,2013-01-12 01:37:00,
2013-01-11 20:42:00,46.8,45.7,30.18,NW,325,2.0,3.0,96,0.17,,,0.36,0.0,meteohub,2013-01-12 01:42:00,
2013-01-11 20:47:00,46.8,45.7,30.17,NW,325,0.0,3.0,96,0.15,,,0.37,0.0,meteohub,2013-01-12 01:47:00,
2013-01-11 20:52:00,46.6,45.5,30.17,NW,325,0.0,2.0,96,0.15,,,0.38,0.0,meteohub,2013-01-12 01:52:00,
2013-01-11 20:57:00,46.6,45.5,30.17,NW,325,0.0,2.0,96,0.16,,,0.40,0.0,meteohub,2013-01-12 01:57:00,
2013-01-11 21:02:00,46.8,45.7,30.17,NW,325,0.0,2.0,96,0.16,,,0.41,0.0,meteohub,2013-01-12 02:02:00,
2013-01-11 21:07:00,46.6,45.5,30.17,NW,325,1.0,2.0,96,0.17,,,0.42,0.0,meteohub,2013-01-12 02:07:00,
2013-01-11 21:12:00,46.6,45.5,30.16,East,90,1.0,2.0,96,0.16,,,0.42,0.0,meteohub,2013-01-12 02:12:00,
2013-01-11 21:17:00,46.6,45.5,30.16,ENE,69,1.0,2.0,96,0.16,,,0.43,0.0,meteohub,2013-01-12 02:17:00,
2013-01-11 21:22:00,46.6,45.5,30.16,ENE,69,0.0,3.0,96,0.14,,,0.44,0.0,meteohub,2013-01-12 02:22:00,
2013-01-11 21:28:00,46.6,45.5,30.15,ENE,69,1.0,3.0,96,0.14,,,0.45,0.0,meteohub,2013-01-12 02:28:00,
2013-01-11 21:33:00,46.6,45.5,30.16,ENE,69,1.0,3.0,96,0.12,,,0.45,0.0,meteohub,2013-01-12 02:33:00,
2013-01-11 21:38:00,46.6,45.5,30.15,NE,50,2.0,4.0,96,0.12,,,0.46,0.0,meteohub,2013-01-12 02:38:00,
2013-01-11 21:43:00,46.4,45.3,30.15,ENE,60,2.0,5.0,96,0.11,,,0.47,0.0,meteohub,2013-01-12 02:43:00,
2013-01-11 21:48:00,46.4,45.3,30.15,ENE,65,2.0,5.0,96,0.10,,,0.47,0.0,meteohub,2013-01-12 02:48:00,
2013-01-11 21:53:00,46.4,45.3,30.15,ENE,61,1.0,5.0,96,0.09,,,0.48,0.0,meteohub,2013-01-12 02:53:00,
2013-01-11 21:58:00,46.4,45.3,30.15,NE,42,4.0,7.0,96,0.10,,,0.49,0.0,meteohub,2013-01-12 02:58:00,
2013-01-11 22:04:00,46.4,45.3,30.15,ENE,62,3.0,7.0,96,0.08,,,0.50,0.0,meteohub,2013-01-12 03:04:00,
2013-01-11 22:09:00,46.2,45.1,30.15,NE,34,0.0,7.0,96,0.09,,,0.51,0.0,meteohub,2013-01-12 03:09:00,
2013-01-11 22:14:00,46.2,45.1,30.15,East,87,1.0,5.0,96,0.09,,,0.51,0.0,meteohub,2013-01-12 03:14:00,
2013-01-11 22:19:00,46.2,45.1,30.15,ENE,74,0.0,5.0,96,0.09,,,0.52,0.0,meteohub,2013-01-12 03:19:00,
2013-01-11 22:24:00,46.2,45.1,30.14,East,84,3.0,5.0,96,0.08,,,0.52,0.0,meteohub,2013-01-12 03:24:00,
2013-01-11 22:29:00,46.2,45.1,30.13,ESE,119,0.0,5.0,96,0.08,,,0.53,0.0,meteohub,2013-01-12 03:29:00,
2013-01-11 22:34:00,46.2,45.1,30.13,ESE,102,3.0,5.0,96,0.08,,,0.54,0.0,meteohub,2013-01-12 03:34:00,
2013-01-11 22:39:00,46.2,45.1,30.13,East,82,3.0,4.0,96,0.08,,,0.54,0.0,meteohub,2013-01-12 03:39:00,
2013-01-11 22:44:00,46.2,45.5,30.12,SE,128,3.0,5.0,97,0.07,,,0.54,0.0,meteohub,2013-01-12 03:44:00,
2013-01-11 22:50:00,46.2,45.5,30.12,East,101,1.0,5.0,97,0.06,,,0.54,0.0,meteohub,2013-01-12 03:50:00,
2013-01-11 22:55:00,46.2,45.5,30.12,ENE,66,4.0,6.0,97,0.06,,,0.55,0.0,meteohub,2013-01-12 03:55:00,
2013-01-11 23:00:00,46.4,45.7,30.12,East,84,1.0,6.0,97,0.05,,,0.55,0.0,meteohub,2013-01-12 04:00:00,
2013-01-11 23:05:00,46.6,45.9,30.12,East,86,3.0,6.0,97,0.04,,,0.55,0.0,meteohub,2013-01-12 04:05:00,
2013-01-11 23:10:00,46.6,45.9,30.11,East,97,2.0,6.0,97,0.04,,,0.55,0.0,meteohub,2013-01-12 04:10:00,
2013-01-11 23:15:00,46.6,45.9,30.11,ESE,103,3.0,6.0,97,0.04,,,0.56,0.0,meteohub,2013-01-12 04:15:00,
2013-01-11 23:20:00,46.6,45.9,30.10,East,101,0.0,8.0,97,0.03,,,0.56,0.0,meteohub,2013-01-12 04:20:00,
2013-01-11 23:25:00,46.6,45.9,30.10,East,96,0.0,8.0,97,0.03,,,0.56,0.0,meteohub,2013-01-12 04:25:00,
2013-01-11 23:30:00,46.8,46.0,30.10,East,94,5.0,7.0,97,0.02,,,0.56,0.0,meteohub,2013-01-12 04:30:00,
2013-01-11 23:36:00,46.8,46.0,30.09,East,86,2.0,7.0,97,0.02,,,0.56,0.0,meteohub,2013-01-12 04:36:00,
2013-01-11 23:41:00,46.9,46.2,30.09,ESE,109,2.0,8.0,97,0.02,,,0.56,0.0,meteohub,2013-01-12 04:41:00,
2013-01-11 23:46:00,46.9,46.2,30.10,East,80,0.0,8.0,97,0.02,,,0.56,0.0,meteohub,2013-01-12 04:46:00,
2013-01-11 23:51:00,47.1,46.4,30.09,ESE,115,2.0,8.0,97,0.01,,,0.56,0.0,meteohub,2013-01-12 04:51:00,
2013-01-11 23:56:00,47.1,46.4,30.09,ENE,72,1.0,8.0,97,0.01,,,0.56,0.0,meteohub,2013-01-12 04:56:00,